owner,sensor,date,latitude,longitude,vertical_datum,sea_water_practical_salinity,qcFlag 
TABS,ioos:station:wmo:42043:1,2005-05-01T00:00:00Z,28.9818,-94.9186,2.0,30.96,11111222 
TABS,ioos:station:wmo:42043:1,2005-05-01T00:30:00Z,28.9818,-94.9186,2.0,31.01,11111222 
TABS,ioos:station:wmo:42043:1,2005-05-01T01:00:00Z,28.9818,-94.9186,2.0,31.03,11111222 
TABS,ioos:station:wmo:42043:1,2005-05-01T01:30:00Z,28.9818,-94.9186,2.0,31.04,11111222 
TABS,ioos:station:wmo:42043:1,2005-05-01T02:00:00Z,28.9818,-94.9186,2.0,31.06,11111222 
TABS,ioos:station:wmo:42043:1,2005-05-01T02:30:00Z,28.9818,-94.9186,2.0,31.08,11111222 
TABS,ioos:station:wmo:42043:1,2005-05-01T03:00:00Z,28.9818,-94.9186,2.0,31.06,11111222 
TABS,ioos:station:wmo:42043:1,2005-05-01T03:30:00Z,28.9818,-94.9186,2.0,31.06,11111222 
TABS,ioos:station:wmo:42043:1,2005-05-01T04:00:00Z,28.9818,-94.9186,2.0,31.06,11111222 
TABS,ioos:station:wmo:42043:1,2005-05-01T04:30:00Z,28.9818,-94.9186,2.0,31.05,11111222 
TABS,ioos:station:wmo:42043:1,2005-05-01T05:00:00Z,28.9818,-94.9186,2.0,31.03,11111222 
TABS,ioos:station:wmo:42043:1,2005-05-01T05:30:00Z,28.9818,-94.9186,2.0,31.02,11111222 
TABS,ioos:station:wmo:42043:1,2005-05-01T06:00:00Z,28.9818,-94.9186,2.0,31.0,11111222 
TABS,ioos:station:wmo:42043:1,2005-05-01T06:30:00Z,28.9818,-94.9186,2.0,31.01,11111222 
TABS,ioos:station:wmo:42043:1,2005-05-01T07:00:00Z,28.9818,-94.9186,2.0,31.01,11111222 
TABS,ioos:station:wmo:42043:1,2005-05-01T07:30:00Z,28.9818,-94.9186,2.0,31.07,11111222 
TABS,ioos:station:wmo:42043:1,2005-05-01T08:00:00Z,28.9818,-94.9186,2.0,31.03,11111222 
TABS,ioos:station:wmo:42043:1,2005-05-01T08:30:00Z,28.9818,-94.9186,2.0,31.09,11111222 
TABS,ioos:station:wmo:42043:1,2005-05-01T09:00:00Z,28.9818,-94.9186,2.0,31.1,11111222 
TABS,ioos:station:wmo:42043:1,2005-05-01T09:30:00Z,28.9818,-94.9186,2.0,31.17,11111222 
TABS,ioos:station:wmo:42043:1,2005-05-01T10:00:00Z,28.9818,-94.9186,2.0,31.14,11111222 
TABS,ioos:station:wmo:42043:1,2005-05-01T10:30:00Z,28.9818,-94.9186,2.0,31.23,11111222 
TABS,ioos:station:wmo:42043:1,2005-05-01T11:00:00Z,28.9818,-94.9186,2.0,31.3,11111222 
TABS,ioos:station:wmo:42043:1,2005-05-01T11:30:00Z,28.9818,-94.9186,2.0,31.31,11111222 
TABS,ioos:station:wmo:42043:1,2005-05-01T12:00:00Z,28.9818,-94.9186,2.0,31.36,11111222 
TABS,ioos:station:wmo:42043:1,2005-05-01T12:30:00Z,28.9818,-94.9186,2.0,31.35,11111222 
TABS,ioos:station:wmo:42043:1,2005-05-01T13:00:00Z,28.9818,-94.9186,2.0,31.34,11111222 
TABS,ioos:station:wmo:42043:1,2005-05-01T13:30:00Z,28.9818,-94.9186,2.0,31.34,11111222 
TABS,ioos:station:wmo:42043:1,2005-05-01T14:00:00Z,28.9818,-94.9186,2.0,31.35,11111222 
TABS,ioos:station:wmo:42043:1,2005-05-01T14:30:00Z,28.9818,-94.9186,2.0,31.38,11111222 
TABS,ioos:station:wmo:42043:1,2005-05-01T15:00:00Z,28.9818,-94.9186,2.0,31.39,11111222 
TABS,ioos:station:wmo:42043:1,2005-05-01T15:30:00Z,28.9818,-94.9186,2.0,31.4,11111222 
TABS,ioos:station:wmo:42043:1,2005-05-01T16:00:00Z,28.9818,-94.9186,2.0,31.38,11111222 
TABS,ioos:station:wmo:42043:1,2005-05-01T16:30:00Z,28.9818,-94.9186,2.0,31.38,11111222 
TABS,ioos:station:wmo:42043:1,2005-05-01T17:00:00Z,28.9818,-94.9186,2.0,31.38,11111222 
TABS,ioos:station:wmo:42043:1,2005-05-01T17:30:00Z,28.9818,-94.9186,2.0,31.38,11111222 
TABS,ioos:station:wmo:42043:1,2005-05-01T18:00:00Z,28.9818,-94.9186,2.0,31.39,11111222 
TABS,ioos:station:wmo:42043:1,2005-05-01T18:30:00Z,28.9818,-94.9186,2.0,31.36,11111222 
TABS,ioos:station:wmo:42043:1,2005-05-01T19:00:00Z,28.9818,-94.9186,2.0,31.32,11111222 
TABS,ioos:station:wmo:42043:1,2005-05-01T19:30:00Z,28.9818,-94.9186,2.0,31.29,11111222 
TABS,ioos:station:wmo:42043:1,2005-05-01T20:00:00Z,28.9818,-94.9186,2.0,31.26,11111222 
TABS,ioos:station:wmo:42043:1,2005-05-01T20:30:00Z,28.9818,-94.9186,2.0,31.27,11111222 
TABS,ioos:station:wmo:42043:1,2005-05-01T21:00:00Z,28.9818,-94.9186,2.0,31.12,11111222 
TABS,ioos:station:wmo:42043:1,2005-05-01T21:30:00Z,28.9818,-94.9186,2.0,31.07,11111222 
TABS,ioos:station:wmo:42043:1,2005-05-01T22:00:00Z,28.9818,-94.9186,2.0,31.08,11111222 
TABS,ioos:station:wmo:42043:1,2005-05-01T22:30:00Z,28.9818,-94.9186,2.0,31.02,11111222 
TABS,ioos:station:wmo:42043:1,2005-05-01T23:00:00Z,28.9818,-94.9186,2.0,30.97,11111222 
TABS,ioos:station:wmo:42043:1,2005-05-01T23:30:00Z,28.9818,-94.9186,2.0,30.94,11111222 
TABS,ioos:station:wmo:42043:1,2005-05-02T00:00:00Z,28.9818,-94.9186,2.0,30.92,11111222 
TABS,ioos:station:wmo:42043:1,2005-05-02T00:30:00Z,28.9818,-94.9186,2.0,30.87,11111222 
TABS,ioos:station:wmo:42043:1,2005-05-02T01:00:00Z,28.9818,-94.9186,2.0,30.84,11111222 
TABS,ioos:station:wmo:42043:1,2005-05-02T01:30:00Z,28.9818,-94.9186,2.0,30.84,11111222 
TABS,ioos:station:wmo:42043:1,2005-05-02T02:00:00Z,28.9818,-94.9186,2.0,30.84,11111222 
TABS,ioos:station:wmo:42043:1,2005-05-02T02:30:00Z,28.9818,-94.9186,2.0,30.84,11111222 
TABS,ioos:station:wmo:42043:1,2005-05-02T03:00:00Z,28.9818,-94.9186,2.0,30.86,11111222 
TABS,ioos:station:wmo:42043:1,2005-05-02T03:30:00Z,28.9818,-94.9186,2.0,30.88,11111222 
TABS,ioos:station:wmo:42043:1,2005-05-02T04:00:00Z,28.9818,-94.9186,2.0,30.89,11111222 
TABS,ioos:station:wmo:42043:1,2005-05-02T04:30:00Z,28.9818,-94.9186,2.0,30.89,11111222 
TABS,ioos:station:wmo:42043:1,2005-05-02T05:00:00Z,28.9818,-94.9186,2.0,30.91,11111222 
TABS,ioos:station:wmo:42043:1,2005-05-02T05:30:00Z,28.9818,-94.9186,2.0,30.9,11111222 
TABS,ioos:station:wmo:42043:1,2005-05-02T06:00:00Z,28.9818,-94.9186,2.0,30.92,11111222 
TABS,ioos:station:wmo:42043:1,2005-05-02T06:30:00Z,28.9818,-94.9186,2.0,30.8,11111222 
TABS,ioos:station:wmo:42043:1,2005-05-02T07:00:00Z,28.9818,-94.9186,2.0,30.78,11111222 
TABS,ioos:station:wmo:42043:1,2005-05-02T07:30:00Z,28.9818,-94.9186,2.0,30.62,11111222 
TABS,ioos:station:wmo:42043:1,2005-05-02T08:00:00Z,28.9818,-94.9186,2.0,30.66,11111222 
TABS,ioos:station:wmo:42043:1,2005-05-02T08:30:00Z,28.9818,-94.9186,2.0,30.65,11111222 
TABS,ioos:station:wmo:42043:1,2005-05-02T09:00:00Z,28.9818,-94.9186,2.0,30.55,11111222 
TABS,ioos:station:wmo:42043:1,2005-05-02T09:30:00Z,28.9818,-94.9186,2.0,30.49,11111222 
TABS,ioos:station:wmo:42043:1,2005-05-02T10:00:00Z,28.9818,-94.9186,2.0,30.47,11111222 
TABS,ioos:station:wmo:42043:1,2005-05-02T10:30:00Z,28.9818,-94.9186,2.0,30.55,11111222 
TABS,ioos:station:wmo:42043:1,2005-05-02T11:00:00Z,28.9818,-94.9186,2.0,30.69,11111222 
TABS,ioos:station:wmo:42043:1,2005-05-02T11:30:00Z,28.9818,-94.9186,2.0,30.59,11111222 
TABS,ioos:station:wmo:42043:1,2005-05-02T12:00:00Z,28.9818,-94.9186,2.0,30.63,11111222 
TABS,ioos:station:wmo:42043:1,2005-05-02T12:30:00Z,28.9818,-94.9186,2.0,30.62,11111222 
TABS,ioos:station:wmo:42043:1,2005-05-02T13:00:00Z,28.9818,-94.9186,2.0,30.36,11111222 
TABS,ioos:station:wmo:42043:1,2005-05-02T13:30:00Z,28.9818,-94.9186,2.0,30.35,11111222 
TABS,ioos:station:wmo:42043:1,2005-05-02T14:00:00Z,28.9818,-94.9186,2.0,30.46,11111222 
TABS,ioos:station:wmo:42043:1,2005-05-02T14:30:00Z,28.9818,-94.9186,2.0,31.09,11111222 
TABS,ioos:station:wmo:42043:1,2005-05-02T15:00:00Z,28.9818,-94.9186,2.0,31.15,11111222 
TABS,ioos:station:wmo:42043:1,2005-05-02T15:30:00Z,28.9818,-94.9186,2.0,31.19,11111222 
TABS,ioos:station:wmo:42043:1,2005-05-02T16:00:00Z,28.9818,-94.9186,2.0,31.25,11111222 
TABS,ioos:station:wmo:42043:1,2005-05-02T16:30:00Z,28.9818,-94.9186,2.0,31.25,11111222 
TABS,ioos:station:wmo:42043:1,2005-05-02T17:00:00Z,28.9818,-94.9186,2.0,31.42,11111222 
TABS,ioos:station:wmo:42043:1,2005-05-02T17:30:00Z,28.9818,-94.9186,2.0,31.38,11111222 
TABS,ioos:station:wmo:42043:1,2005-05-02T18:00:00Z,28.9818,-94.9186,2.0,31.45,11111222 
TABS,ioos:station:wmo:42043:1,2005-05-02T18:30:00Z,28.9818,-94.9186,2.0,31.46,11111222 
TABS,ioos:station:wmo:42043:1,2005-05-02T19:00:00Z,28.9818,-94.9186,2.0,31.38,11111222 
TABS,ioos:station:wmo:42043:1,2005-05-02T19:30:00Z,28.9818,-94.9186,2.0,31.41,11111222 
TABS,ioos:station:wmo:42043:1,2005-05-02T20:00:00Z,28.9818,-94.9186,2.0,31.2,11111222 
TABS,ioos:station:wmo:42043:1,2005-05-02T20:30:00Z,28.9818,-94.9186,2.0,31.17,11111222 
TABS,ioos:station:wmo:42043:1,2005-05-02T21:00:00Z,28.9818,-94.9186,2.0,31.17,11111222 
TABS,ioos:station:wmo:42043:1,2005-05-02T21:30:00Z,28.9818,-94.9186,2.0,31.14,11111222 
TABS,ioos:station:wmo:42043:1,2005-05-02T22:00:00Z,28.9818,-94.9186,2.0,31.02,11111222 
TABS,ioos:station:wmo:42043:1,2005-05-02T22:30:00Z,28.9818,-94.9186,2.0,30.98,11111222 
TABS,ioos:station:wmo:42043:1,2005-05-02T23:00:00Z,28.9818,-94.9186,2.0,30.97,11111222 
TABS,ioos:station:wmo:42043:1,2005-05-02T23:30:00Z,28.9818,-94.9186,2.0,30.95,11111222 
TABS,ioos:station:wmo:42043:1,2005-05-03T00:00:00Z,28.9818,-94.9186,2.0,30.95,11111222 
TABS,ioos:station:wmo:42043:1,2005-05-03T00:30:00Z,28.9818,-94.9186,2.0,30.97,11111222 
TABS,ioos:station:wmo:42043:1,2005-05-03T01:00:00Z,28.9818,-94.9186,2.0,30.95,11111222 
TABS,ioos:station:wmo:42043:1,2005-05-03T01:30:00Z,28.9818,-94.9186,2.0,30.93,11111222 
TABS,ioos:station:wmo:42043:1,2005-05-03T02:00:00Z,28.9818,-94.9186,2.0,30.92,11111222 
TABS,ioos:station:wmo:42043:1,2005-05-03T02:30:00Z,28.9818,-94.9186,2.0,30.91,11111222 
TABS,ioos:station:wmo:42043:1,2005-05-03T03:00:00Z,28.9818,-94.9186,2.0,30.9,11111222 
TABS,ioos:station:wmo:42043:1,2005-05-03T03:30:00Z,28.9818,-94.9186,2.0,30.89,11111222 
TABS,ioos:station:wmo:42043:1,2005-05-03T04:00:00Z,28.9818,-94.9186,2.0,30.9,11111222 
TABS,ioos:station:wmo:42043:1,2005-05-03T04:30:00Z,28.9818,-94.9186,2.0,30.9,11111222 
TABS,ioos:station:wmo:42043:1,2005-05-03T05:00:00Z,28.9818,-94.9186,2.0,30.9,11111222 
TABS,ioos:station:wmo:42043:1,2005-05-03T05:30:00Z,28.9818,-94.9186,2.0,30.89,11111222 
TABS,ioos:station:wmo:42043:1,2005-05-03T06:00:00Z,28.9818,-94.9186,2.0,30.78,11111222 
TABS,ioos:station:wmo:42043:1,2005-05-03T06:30:00Z,28.9818,-94.9186,2.0,30.73,11111222 
TABS,ioos:station:wmo:42043:1,2005-05-03T07:00:00Z,28.9818,-94.9186,2.0,30.63,11111222 
TABS,ioos:station:wmo:42043:1,2005-05-03T07:30:00Z,28.9818,-94.9186,2.0,30.66,11111222 
TABS,ioos:station:wmo:42043:1,2005-05-03T08:00:00Z,28.9818,-94.9186,2.0,30.39,11111222 
TABS,ioos:station:wmo:42043:1,2005-05-03T08:30:00Z,28.9818,-94.9186,2.0,30.45,11111222 
TABS,ioos:station:wmo:42043:1,2005-05-03T09:00:00Z,28.9818,-94.9186,2.0,30.24,11111222 
TABS,ioos:station:wmo:42043:1,2005-05-03T09:30:00Z,28.9818,-94.9186,2.0,30.22,11111222 
TABS,ioos:station:wmo:42043:1,2005-05-03T10:00:00Z,28.9818,-94.9186,2.0,30.21,11111222 
TABS,ioos:station:wmo:42043:1,2005-05-03T11:00:00Z,28.9818,-94.9186,2.0,30.24,11111222 
TABS,ioos:station:wmo:42043:1,2005-05-03T11:30:00Z,28.9818,-94.9186,2.0,30.26,11111222 
TABS,ioos:station:wmo:42043:1,2005-05-03T12:00:00Z,28.9818,-94.9186,2.0,30.21,11111222 
TABS,ioos:station:wmo:42043:1,2005-05-03T12:30:00Z,28.9818,-94.9186,2.0,30.06,11111222 
TABS,ioos:station:wmo:42043:1,2005-05-03T13:00:00Z,28.9818,-94.9186,2.0,30.03,11111222 
TABS,ioos:station:wmo:42043:1,2005-05-03T13:30:00Z,28.9818,-94.9186,2.0,29.98,11111222 
TABS,ioos:station:wmo:42043:1,2005-05-03T14:00:00Z,28.9818,-94.9186,2.0,29.9,11111222 
TABS,ioos:station:wmo:42043:1,2005-05-03T14:30:00Z,28.9818,-94.9186,2.0,29.87,11111222 
TABS,ioos:station:wmo:42043:1,2005-05-03T15:00:00Z,28.9818,-94.9186,2.0,29.87,11111222 
TABS,ioos:station:wmo:42043:1,2005-05-03T15:30:00Z,28.9818,-94.9186,2.0,29.81,11111222 
TABS,ioos:station:wmo:42043:1,2005-05-03T16:00:00Z,28.9818,-94.9186,2.0,29.75,11111222 
TABS,ioos:station:wmo:42043:1,2005-05-03T16:30:00Z,28.9818,-94.9186,2.0,29.74,11111222 
TABS,ioos:station:wmo:42043:1,2005-05-03T17:00:00Z,28.9818,-94.9186,2.0,29.77,11111222 
TABS,ioos:station:wmo:42043:1,2005-05-03T17:30:00Z,28.9818,-94.9186,2.0,29.79,11111222 
TABS,ioos:station:wmo:42043:1,2005-05-03T18:00:00Z,28.9818,-94.9186,2.0,29.78,11111222 
TABS,ioos:station:wmo:42043:1,2005-05-03T18:30:00Z,28.9818,-94.9186,2.0,29.73,11111222 
TABS,ioos:station:wmo:42043:1,2005-05-03T19:00:00Z,28.9818,-94.9186,2.0,29.9,11111222 
TABS,ioos:station:wmo:42043:1,2005-05-03T19:30:00Z,28.9818,-94.9186,2.0,29.97,11111222 
TABS,ioos:station:wmo:42043:1,2005-05-03T20:00:00Z,28.9818,-94.9186,2.0,30.0,11111222 
TABS,ioos:station:wmo:42043:1,2005-05-03T20:30:00Z,28.9818,-94.9186,2.0,29.87,11111222 
TABS,ioos:station:wmo:42043:1,2005-05-03T21:00:00Z,28.9818,-94.9186,2.0,29.77,11111222 
TABS,ioos:station:wmo:42043:1,2005-05-03T21:30:00Z,28.9818,-94.9186,2.0,29.84,11111222 
TABS,ioos:station:wmo:42043:1,2005-05-03T22:00:00Z,28.9818,-94.9186,2.0,29.86,11111222 
TABS,ioos:station:wmo:42043:1,2005-05-03T22:30:00Z,28.9818,-94.9186,2.0,29.74,11111222 
TABS,ioos:station:wmo:42043:1,2005-05-03T23:00:00Z,28.9818,-94.9186,2.0,29.78,11111222 
TABS,ioos:station:wmo:42043:1,2005-05-03T23:30:00Z,28.9818,-94.9186,2.0,30.21,11111222 
TABS,ioos:station:wmo:42043:1,2005-05-04T00:00:00Z,28.9818,-94.9186,2.0,30.42,11111222 
TABS,ioos:station:wmo:42043:1,2005-05-04T00:30:00Z,28.9818,-94.9186,2.0,30.4,11111222 
TABS,ioos:station:wmo:42043:1,2005-05-04T01:00:00Z,28.9818,-94.9186,2.0,30.52,11111222 
TABS,ioos:station:wmo:42043:1,2005-05-04T01:30:00Z,28.9818,-94.9186,2.0,30.68,11111222 
TABS,ioos:station:wmo:42043:1,2005-05-04T02:00:00Z,28.9818,-94.9186,2.0,30.72,11111222 
TABS,ioos:station:wmo:42043:1,2005-05-04T02:30:00Z,28.9818,-94.9186,2.0,30.8,11111222 
TABS,ioos:station:wmo:42043:1,2005-05-04T03:00:00Z,28.9818,-94.9186,2.0,30.84,11111222 
TABS,ioos:station:wmo:42043:1,2005-05-04T03:30:00Z,28.9818,-94.9186,2.0,30.92,11111222 
TABS,ioos:station:wmo:42043:1,2005-05-04T04:00:00Z,28.9818,-94.9186,2.0,30.93,11111222 
TABS,ioos:station:wmo:42043:1,2005-05-04T04:30:00Z,28.9818,-94.9186,2.0,31.0,11111222 
TABS,ioos:station:wmo:42043:1,2005-05-04T05:00:00Z,28.9818,-94.9186,2.0,31.01,11111222 
TABS,ioos:station:wmo:42043:1,2005-05-04T05:30:00Z,28.9818,-94.9186,2.0,31.13,11111222 
TABS,ioos:station:wmo:42043:1,2005-05-04T06:00:00Z,28.9818,-94.9186,2.0,30.75,11111222 
TABS,ioos:station:wmo:42043:1,2005-05-04T06:30:00Z,28.9818,-94.9186,2.0,30.74,11111222 
TABS,ioos:station:wmo:42043:1,2005-05-04T07:00:00Z,28.9818,-94.9186,2.0,30.84,11111222 
TABS,ioos:station:wmo:42043:1,2005-05-04T08:00:00Z,28.9818,-94.9186,2.0,29.63,11111222 
TABS,ioos:station:wmo:42043:1,2005-05-04T08:30:00Z,28.9818,-94.9186,2.0,29.61,11111222 
TABS,ioos:station:wmo:42043:1,2005-05-04T09:00:00Z,28.9818,-94.9186,2.0,29.65,11111222 
TABS,ioos:station:wmo:42043:1,2005-05-04T09:30:00Z,28.9818,-94.9186,2.0,29.61,11111222 
TABS,ioos:station:wmo:42043:1,2005-05-04T10:00:00Z,28.9818,-94.9186,2.0,29.44,11111222 
TABS,ioos:station:wmo:42043:1,2005-05-04T10:30:00Z,28.9818,-94.9186,2.0,29.41,11111222 
TABS,ioos:station:wmo:42043:1,2005-05-04T11:00:00Z,28.9818,-94.9186,2.0,29.32,11111222 
TABS,ioos:station:wmo:42043:1,2005-05-04T11:30:00Z,28.9818,-94.9186,2.0,29.23,11111222 
TABS,ioos:station:wmo:42043:1,2005-05-04T12:00:00Z,28.9818,-94.9186,2.0,29.18,11111222 
TABS,ioos:station:wmo:42043:1,2005-05-04T12:30:00Z,28.9818,-94.9186,2.0,29.28,11111222 
TABS,ioos:station:wmo:42043:1,2005-05-04T13:00:00Z,28.9818,-94.9186,2.0,29.35,11111222 
TABS,ioos:station:wmo:42043:1,2005-05-04T13:30:00Z,28.9818,-94.9186,2.0,29.19,11111222 
TABS,ioos:station:wmo:42043:1,2005-05-04T14:00:00Z,28.9818,-94.9186,2.0,29.21,11111222 
TABS,ioos:station:wmo:42043:1,2005-05-04T14:30:00Z,28.9818,-94.9186,2.0,29.2,11111222 
TABS,ioos:station:wmo:42043:1,2005-05-04T15:00:00Z,28.9818,-94.9186,2.0,29.21,11111222 
TABS,ioos:station:wmo:42043:1,2005-05-04T15:30:00Z,28.9818,-94.9186,2.0,29.3,11111222 
TABS,ioos:station:wmo:42043:1,2005-05-04T16:00:00Z,28.9818,-94.9186,2.0,29.0,11111222 
TABS,ioos:station:wmo:42043:1,2005-05-04T16:30:00Z,28.9818,-94.9186,2.0,29.09,11111222 
TABS,ioos:station:wmo:42043:1,2005-05-04T17:00:00Z,28.9818,-94.9186,2.0,29.14,11111222 
TABS,ioos:station:wmo:42043:1,2005-05-04T17:30:00Z,28.9818,-94.9186,2.0,29.33,11111222 
TABS,ioos:station:wmo:42043:1,2005-05-04T18:00:00Z,28.9818,-94.9186,2.0,29.22,11111222 
TABS,ioos:station:wmo:42043:1,2005-05-04T18:30:00Z,28.9818,-94.9186,2.0,29.13,11111222 
TABS,ioos:station:wmo:42043:1,2005-05-04T19:00:00Z,28.9818,-94.9186,2.0,29.11,11111222 
TABS,ioos:station:wmo:42043:1,2005-05-04T19:30:00Z,28.9818,-94.9186,2.0,29.16,11111222 
TABS,ioos:station:wmo:42043:1,2005-05-04T20:00:00Z,28.9818,-94.9186,2.0,29.09,11111222 
TABS,ioos:station:wmo:42043:1,2005-05-04T20:30:00Z,28.9818,-94.9186,2.0,29.11,11111222 
TABS,ioos:station:wmo:42043:1,2005-05-04T21:00:00Z,28.9818,-94.9186,2.0,29.07,11111222 
TABS,ioos:station:wmo:42043:1,2005-05-04T21:30:00Z,28.9818,-94.9186,2.0,29.22,11111222 
TABS,ioos:station:wmo:42043:1,2005-05-04T22:00:00Z,28.9818,-94.9186,2.0,29.18,11111222 
TABS,ioos:station:wmo:42043:1,2005-05-04T22:30:00Z,28.9818,-94.9186,2.0,28.78,11111222 
TABS,ioos:station:wmo:42043:1,2005-05-04T23:00:00Z,28.9818,-94.9186,2.0,28.76,11111222 
TABS,ioos:station:wmo:42043:1,2005-05-04T23:30:00Z,28.9818,-94.9186,2.0,28.74,11111222 
TABS,ioos:station:wmo:42043:1,2005-05-05T00:00:00Z,28.9818,-94.9186,2.0,28.58,11111222 
TABS,ioos:station:wmo:42043:1,2005-05-05T00:30:00Z,28.9818,-94.9186,2.0,28.53,11111222 
TABS,ioos:station:wmo:42043:1,2005-05-05T01:00:00Z,28.9818,-94.9186,2.0,28.47,11111222 
TABS,ioos:station:wmo:42043:1,2005-05-05T01:30:00Z,28.9818,-94.9186,2.0,28.47,11111222 
TABS,ioos:station:wmo:42043:1,2005-05-05T02:00:00Z,28.9818,-94.9186,2.0,28.72,11111222 
TABS,ioos:station:wmo:42043:1,2005-05-05T02:30:00Z,28.9818,-94.9186,2.0,28.45,11111222 
TABS,ioos:station:wmo:42043:1,2005-05-05T03:00:00Z,28.9818,-94.9186,2.0,28.46,11111222 
TABS,ioos:station:wmo:42043:1,2005-05-05T03:30:00Z,28.9818,-94.9186,2.0,28.56,11111222 
TABS,ioos:station:wmo:42043:1,2005-05-05T04:00:00Z,28.9818,-94.9186,2.0,28.77,11111222 
TABS,ioos:station:wmo:42043:1,2005-05-05T04:30:00Z,28.9818,-94.9186,2.0,28.48,11111222 
TABS,ioos:station:wmo:42043:1,2005-05-05T05:00:00Z,28.9818,-94.9186,2.0,28.66,11111222 
TABS,ioos:station:wmo:42043:1,2005-05-05T05:30:00Z,28.9818,-94.9186,2.0,29.27,11111222 
TABS,ioos:station:wmo:42043:1,2005-05-05T06:00:00Z,28.9818,-94.9186,2.0,29.02,11111222 
TABS,ioos:station:wmo:42043:1,2005-05-05T06:30:00Z,28.9818,-94.9186,2.0,28.91,11111222 
TABS,ioos:station:wmo:42043:1,2005-05-05T07:00:00Z,28.9818,-94.9186,2.0,29.24,11111222 
TABS,ioos:station:wmo:42043:1,2005-05-05T07:30:00Z,28.9818,-94.9186,2.0,29.21,11111222 
TABS,ioos:station:wmo:42043:1,2005-05-05T08:00:00Z,28.9818,-94.9186,2.0,29.43,11111222 
TABS,ioos:station:wmo:42043:1,2005-05-05T08:30:00Z,28.9818,-94.9186,2.0,29.36,11111222 
TABS,ioos:station:wmo:42043:1,2005-05-05T09:00:00Z,28.9818,-94.9186,2.0,29.45,11111222 
TABS,ioos:station:wmo:42043:1,2005-05-05T09:30:00Z,28.9818,-94.9186,2.0,29.69,11111222 
TABS,ioos:station:wmo:42043:1,2005-05-05T10:00:00Z,28.9818,-94.9186,2.0,30.07,11111222 
TABS,ioos:station:wmo:42043:1,2005-05-05T10:30:00Z,28.9818,-94.9186,2.0,30.26,11111222 
TABS,ioos:station:wmo:42043:1,2005-05-05T11:00:00Z,28.9818,-94.9186,2.0,30.04,11111222 
TABS,ioos:station:wmo:42043:1,2005-05-05T11:30:00Z,28.9818,-94.9186,2.0,30.22,11111222 
TABS,ioos:station:wmo:42043:1,2005-05-05T12:00:00Z,28.9818,-94.9186,2.0,30.38,11111222 
TABS,ioos:station:wmo:42043:1,2005-05-05T12:30:00Z,28.9818,-94.9186,2.0,30.34,11111222 
TABS,ioos:station:wmo:42043:1,2005-05-05T13:00:00Z,28.9818,-94.9186,2.0,30.27,11111222 
TABS,ioos:station:wmo:42043:1,2005-05-05T13:30:00Z,28.9818,-94.9186,2.0,30.66,11111222 
TABS,ioos:station:wmo:42043:1,2005-05-05T14:00:00Z,28.9818,-94.9186,2.0,30.79,11111222 
TABS,ioos:station:wmo:42043:1,2005-05-05T14:30:00Z,28.9818,-94.9186,2.0,30.55,11111222 
TABS,ioos:station:wmo:42043:1,2005-05-05T15:00:00Z,28.9818,-94.9186,2.0,30.84,11111222 
TABS,ioos:station:wmo:42043:1,2005-05-05T15:30:00Z,28.9818,-94.9186,2.0,31.2,11111222 
TABS,ioos:station:wmo:42043:1,2005-05-05T16:00:00Z,28.9818,-94.9186,2.0,31.21,11111222 
TABS,ioos:station:wmo:42043:1,2005-05-05T16:30:00Z,28.9818,-94.9186,2.0,31.2,11111222 
TABS,ioos:station:wmo:42043:1,2005-05-05T17:00:00Z,28.9818,-94.9186,2.0,31.25,11111222 
TABS,ioos:station:wmo:42043:1,2005-05-05T17:30:00Z,28.9818,-94.9186,2.0,31.39,11111222 
TABS,ioos:station:wmo:42043:1,2005-05-05T18:00:00Z,28.9818,-94.9186,2.0,31.33,11111222 
TABS,ioos:station:wmo:42043:1,2005-05-05T18:30:00Z,28.9818,-94.9186,2.0,31.35,11111222 
TABS,ioos:station:wmo:42043:1,2005-05-05T19:00:00Z,28.9818,-94.9186,2.0,31.36,11111222 
TABS,ioos:station:wmo:42043:1,2005-05-05T19:30:00Z,28.9818,-94.9186,2.0,31.5,11111222 
TABS,ioos:station:wmo:42043:1,2005-05-05T20:00:00Z,28.9818,-94.9186,2.0,31.5,11111222 
TABS,ioos:station:wmo:42043:1,2005-05-05T20:30:00Z,28.9818,-94.9186,2.0,31.51,11111222 
TABS,ioos:station:wmo:42043:1,2005-05-05T21:00:00Z,28.9818,-94.9186,2.0,31.51,11111222 
TABS,ioos:station:wmo:42043:1,2005-05-05T21:30:00Z,28.9818,-94.9186,2.0,31.54,11111222 
TABS,ioos:station:wmo:42043:1,2005-05-05T22:00:00Z,28.9818,-94.9186,2.0,31.58,11111222 
TABS,ioos:station:wmo:42043:1,2005-05-05T22:30:00Z,28.9818,-94.9186,2.0,31.5,11111222 
TABS,ioos:station:wmo:42043:1,2005-05-05T23:00:00Z,28.9818,-94.9186,2.0,31.45,11111222 
TABS,ioos:station:wmo:42043:1,2005-05-05T23:30:00Z,28.9818,-94.9186,2.0,31.39,11111222 
TABS,ioos:station:wmo:42043:1,2005-05-06T00:00:00Z,28.9818,-94.9186,2.0,31.47,11111222 
TABS,ioos:station:wmo:42043:1,2005-05-06T00:30:00Z,28.9818,-94.9186,2.0,31.45,11111222 
TABS,ioos:station:wmo:42043:1,2005-05-06T01:00:00Z,28.9818,-94.9186,2.0,31.29,11111222 
TABS,ioos:station:wmo:42043:1,2005-05-06T01:30:00Z,28.9818,-94.9186,2.0,31.29,11111222 
TABS,ioos:station:wmo:42043:1,2005-05-06T02:00:00Z,28.9818,-94.9186,2.0,31.31,11111222 
TABS,ioos:station:wmo:42043:1,2005-05-06T02:30:00Z,28.9818,-94.9186,2.0,31.31,11111222 
TABS,ioos:station:wmo:42043:1,2005-05-06T03:00:00Z,28.9818,-94.9186,2.0,31.33,11111222 
TABS,ioos:station:wmo:42043:1,2005-05-06T03:30:00Z,28.9818,-94.9186,2.0,31.32,11111222 
TABS,ioos:station:wmo:42043:1,2005-05-06T04:00:00Z,28.9818,-94.9186,2.0,31.37,11111222 
TABS,ioos:station:wmo:42043:1,2005-05-06T04:30:00Z,28.9818,-94.9186,2.0,31.37,11111222 
TABS,ioos:station:wmo:42043:1,2005-05-06T05:00:00Z,28.9818,-94.9186,2.0,31.38,11111222 
TABS,ioos:station:wmo:42043:1,2005-05-06T05:30:00Z,28.9818,-94.9186,2.0,31.38,11111222 
TABS,ioos:station:wmo:42043:1,2005-05-06T06:00:00Z,28.9818,-94.9186,2.0,31.4,11111222 
TABS,ioos:station:wmo:42043:1,2005-05-06T06:30:00Z,28.9818,-94.9186,2.0,31.39,11111222 
TABS,ioos:station:wmo:42043:1,2005-05-06T07:00:00Z,28.9818,-94.9186,2.0,31.38,11111222 
TABS,ioos:station:wmo:42043:1,2005-05-06T07:30:00Z,28.9818,-94.9186,2.0,31.29,11111222 
TABS,ioos:station:wmo:42043:1,2005-05-06T08:00:00Z,28.9818,-94.9186,2.0,31.18,11111222 
TABS,ioos:station:wmo:42043:1,2005-05-06T08:30:00Z,28.9818,-94.9186,2.0,31.15,11111222 
TABS,ioos:station:wmo:42043:1,2005-05-06T09:00:00Z,28.9818,-94.9186,2.0,31.13,11111222 
TABS,ioos:station:wmo:42043:1,2005-05-06T09:30:00Z,28.9818,-94.9186,2.0,31.16,11111222 
TABS,ioos:station:wmo:42043:1,2005-05-06T10:00:00Z,28.9818,-94.9186,2.0,31.21,11111222 
TABS,ioos:station:wmo:42043:1,2005-05-06T10:30:00Z,28.9818,-94.9186,2.0,31.25,11111222 
TABS,ioos:station:wmo:42043:1,2005-05-06T11:00:00Z,28.9818,-94.9186,2.0,31.34,11111222 
TABS,ioos:station:wmo:42043:1,2005-05-06T11:30:00Z,28.9818,-94.9186,2.0,31.0,11111222 
TABS,ioos:station:wmo:42043:1,2005-05-06T12:00:00Z,28.9818,-94.9186,2.0,30.86,11111222 
TABS,ioos:station:wmo:42043:1,2005-05-06T12:30:00Z,28.9818,-94.9186,2.0,30.86,11111222 
TABS,ioos:station:wmo:42043:1,2005-05-06T13:00:00Z,28.9818,-94.9186,2.0,30.83,11111222 
TABS,ioos:station:wmo:42043:1,2005-05-06T13:30:00Z,28.9818,-94.9186,2.0,30.84,11111222 
TABS,ioos:station:wmo:42043:1,2005-05-06T14:00:00Z,28.9818,-94.9186,2.0,30.82,11111222 
TABS,ioos:station:wmo:42043:1,2005-05-06T14:30:00Z,28.9818,-94.9186,2.0,30.64,11111222 
TABS,ioos:station:wmo:42043:1,2005-05-06T15:00:00Z,28.9818,-94.9186,2.0,30.57,11111222 
TABS,ioos:station:wmo:42043:1,2005-05-06T15:30:00Z,28.9818,-94.9186,2.0,30.54,11111222 
TABS,ioos:station:wmo:42043:1,2005-05-06T16:00:00Z,28.9818,-94.9186,2.0,30.59,11111222 
TABS,ioos:station:wmo:42043:1,2005-05-06T16:30:00Z,28.9818,-94.9186,2.0,30.44,11111222 